TimePST,TemperatureF,Dew PointF,Humidity,Sea Level PressureIn,VisibilityMPH,Wind Direction,Wind SpeedMPH,Gust SpeedMPH,PrecipitationIn,Events,Conditions,WindDirDegrees,DateUTC
12:10 AM,37.4,35.6,93,29.87,8.0,SE,4.6,-,N/A,,Clear,130,2012-12-14 08:10:00
12:30 AM,37.4,35.6,93,29.87,8.0,SSE,3.5,-,N/A,,Clear,160,2012-12-14 08:30:00
12:50 AM,37.4,35.6,93,29.86,9.0,ESE,5.8,-,N/A,,Clear,120,2012-12-14 08:50:00
1:10 AM,35.6,32.0,87,29.86,10.0,SE,5.8,-,N/A,,Clear,130,2012-12-14 09:10:00
1:30 AM,35.6,33.8,93,29.86,9.0,ESE,5.8,-,N/A,,Clear,120,2012-12-14 09:30:00
1:50 AM,35.6,35.6,100,29.86,9.0,SSE,4.6,-,N/A,,Clear,150,2012-12-14 09:50:00
2:10 AM,35.6,33.8,93,29.86,9.0,SE,4.6,-,N/A,,Clear,140,2012-12-14 10:10:00
2:30 AM,33.8,32.0,93,29.86,9.0,SE,3.5,-,N/A,,Clear,140,2012-12-14 10:30:00
2:50 AM,35.6,33.8,93,29.86,10.0,SE,5.8,-,N/A,,Clear,140,2012-12-14 10:50:00
3:10 AM,35.6,33.8,93,29.85,10.0,SE,4.6,-,N/A,,Clear,130,2012-12-14 11:10:00
3:30 AM,33.8,32.0,93,29.85,10.0,SE,5.8,-,N/A,,Clear,130,2012-12-14 11:30:00
3:50 AM,33.8,32.0,93,29.85,10.0,SE,5.8,-,N/A,,Clear,130,2012-12-14 11:50:00
4:10 AM,33.8,32.0,93,29.85,10.0,SSE,5.8,-,N/A,,Clear,150,2012-12-14 12:10:00
4:30 AM,33.8,32.0,93,29.84,10.0,SE,5.8,-,N/A,,Clear,140,2012-12-14 12:30:00
4:50 AM,35.6,32.0,87,29.85,10.0,SE,4.6,-,N/A,,Clear,130,2012-12-14 12:50:00
5:10 AM,35.6,32.0,87,29.85,10.0,ESE,4.6,-,N/A,,Clear,120,2012-12-14 13:10:00
5:30 AM,33.8,32.0,93,29.85,10.0,SE,3.5,-,N/A,,Partly Cloudy,140,2012-12-14 13:30:00
5:50 AM,35.6,32.0,87,29.85,10.0,SE,4.6,-,N/A,,Mostly Cloudy,140,2012-12-14 13:50:00
6:10 AM,35.6,32.0,87,29.86,10.0,ESE,4.6,-,N/A,,Partly Cloudy,110,2012-12-14 14:10:00
6:30 AM,35.6,32.0,87,29.86,10.0,ESE,3.5,-,N/A,,Mostly Cloudy,120,2012-12-14 14:30:00
6:50 AM,35.6,32.0,87,29.87,10.0,ESE,3.5,-,N/A,,Overcast,120,2012-12-14 14:50:00
7:10 AM,35.6,32.0,87,29.87,10.0,Calm,Calm,-,N/A,,Overcast,0,2012-12-14 15:10:00
7:30 AM,37.4,33.8,87,29.88,10.0,SE,3.5,-,N/A,,Overcast,130,2012-12-14 15:30:00
7:50 AM,37.4,33.8,87,29.88,9.0,ESE,4.6,-,N/A,,Overcast,120,2012-12-14 15:50:00
8:10 AM,37.4,33.8,87,29.89,9.0,ESE,4.6,-,N/A,,Overcast,120,2012-12-14 16:10:00
8:30 AM,39.2,35.6,87,29.89,10.0,ESE,4.6,-,N/A,,Overcast,120,2012-12-14 16:30:00
8:50 AM,39.2,35.6,87,29.90,9.0,SE,6.9,-,N/A,,Overcast,130,2012-12-14 16:50:00
9:10 AM,41.0,37.4,87,29.91,10.0,SE,4.6,-,N/A,,Mostly Cloudy,130,2012-12-14 17:10:00
9:30 AM,41.0,37.4,87,29.92,10.0,SE,4.6,-,N/A,,Mostly Cloudy,140,2012-12-14 17:30:00
9:50 AM,42.8,37.4,81,29.92,10.0,SE,3.5,-,N/A,Rain,Light Rain,140,2012-12-14 17:50:00
10:10 AM,44.6,37.4,76,29.92,10.0,SE,5.8,-,N/A,,Mostly Cloudy,140,2012-12-14 18:10:00
10:30 AM,44.6,37.4,76,29.93,10.0,South,4.6,-,N/A,,Scattered Clouds,170,2012-12-14 18:30:00
10:50 AM,44.6,37.4,76,29.93,9.0,SSE,3.5,-,N/A,,Scattered Clouds,160,2012-12-14 18:50:00
11:10 AM,46.4,37.4,71,29.93,10.0,Calm,Calm,-,N/A,,Mostly Cloudy,0,2012-12-14 19:10:00
11:30 AM,46.4,37.4,71,29.93,9.0,Calm,Calm,-,N/A,,Scattered Clouds,0,2012-12-14 19:30:00
11:50 AM,46.4,37.4,71,29.92,10.0,Calm,Calm,-,N/A,,Partly Cloudy,0,2012-12-14 19:50:00
12:10 PM,46.4,37.4,71,29.92,10.0,SW,4.6,-,N/A,,Partly Cloudy,230,2012-12-14 20:10:00
12:30 PM,46.4,39.2,76,29.92,10.0,West,5.8,-,N/A,,Scattered Clouds,260,2012-12-14 20:30:00
12:50 PM,46.4,39.2,76,29.92,10.0,WNW,3.5,-,N/A,,Mostly Cloudy,300,2012-12-14 20:50:00
1:10 PM,46.4,39.2,76,29.91,9.0,WNW,4.6,-,N/A,,Partly Cloudy,300,2012-12-14 21:10:00
1:30 PM,46.4,39.2,76,29.91,9.0,Calm,Calm,-,N/A,,Scattered Clouds,0,2012-12-14 21:30:00
1:50 PM,48.2,39.2,71,29.91,9.0,Calm,Calm,-,N/A,,Scattered Clouds,0,2012-12-14 21:50:00
2:10 PM,48.2,39.2,71,29.92,9.0,Calm,Calm,-,N/A,,Mostly Cloudy,0,2012-12-14 22:10:00
2:30 PM,48.2,39.2,71,29.92,8.0,Calm,Calm,-,N/A,,Scattered Clouds,0,2012-12-14 22:30:00
2:50 PM,48.2,39.2,71,29.93,10.0,WNW,3.5,-,N/A,,Partly Cloudy,300,2012-12-14 22:50:00
3:10 PM,48.2,39.2,71,29.94,9.0,WSW,3.5,-,N/A,,Partly Cloudy,250,2012-12-14 23:10:00
3:30 PM,48.2,39.2,71,29.95,10.0,Calm,Calm,-,N/A,,Scattered Clouds,0,2012-12-14 23:30:00
3:50 PM,48.2,39.2,71,29.96,10.0,West,5.8,-,N/A,,Mostly Cloudy,260,2012-12-14 23:50:00
4:10 PM,46.4,39.2,76,29.97,10.0,West,4.6,-,N/A,,Mostly Cloudy,260,2012-12-15 00:10:00
4:30 PM,46.4,39.2,76,29.97,9.0,WNW,3.5,-,N/A,,Overcast,300,2012-12-15 00:30:00
4:50 PM,46.4,39.2,76,29.98,10.0,Calm,Calm,-,N/A,,Overcast,0,2012-12-15 00:50:00
5:10 PM,46.4,41.0,81,29.98,10.0,Calm,Calm,-,N/A,,Overcast,0,2012-12-15 01:10:00
5:30 PM,46.4,39.2,76,29.98,10.0,Calm,Calm,-,N/A,,Scattered Clouds,0,2012-12-15 01:30:00
5:50 PM,44.6,39.2,81,29.98,10.0,Calm,Calm,-,N/A,,Clear,0,2012-12-15 01:50:00
6:10 PM,44.6,39.2,81,29.99,10.0,North,3.5,-,N/A,,Clear,350,2012-12-15 02:10:00
6:30 PM,41.0,39.2,93,30.00,9.0,North,3.5,-,N/A,,Clear,350,2012-12-15 02:30:00
6:50 PM,41.0,39.2,93,30.00,9.0,NW,3.5,-,N/A,,Scattered Clouds,310,2012-12-15 02:50:00
7:10 PM,41.0,39.2,93,30.00,8.0,WNW,3.5,-,N/A,,Mostly Cloudy,290,2012-12-15 03:10:00
7:30 PM,41.0,39.2,93,30.01,8.0,Calm,Calm,-,N/A,,Overcast,0,2012-12-15 03:30:00
7:50 PM,41.0,39.2,93,30.01,9.0,NE,3.5,-,N/A,,Overcast,50,2012-12-15 03:50:00
8:10 PM,42.8,39.2,87,30.01,10.0,NE,4.6,-,N/A,,Overcast,50,2012-12-15 04:10:00
8:30 PM,41.0,37.4,87,30.02,9.0,Calm,Calm,-,N/A,,Partly Cloudy,0,2012-12-15 04:30:00
8:50 PM,41.0,39.2,93,30.02,10.0,Calm,Calm,-,N/A,,Clear,0,2012-12-15 04:50:00
9:10 PM,41.0,37.4,87,30.02,8.0,Calm,Calm,-,N/A,,Clear,0,2012-12-15 05:10:00
9:30 PM,39.2,37.4,93,30.03,7.0,Calm,Calm,-,N/A,,Clear,0,2012-12-15 05:30:00
9:50 PM,39.2,37.4,93,30.03,7.0,Calm,Calm,-,N/A,,Clear,0,2012-12-15 05:50:00
10:10 PM,39.2,37.4,93,30.03,7.0,Calm,Calm,-,N/A,,Clear,0,2012-12-15 06:10:00
10:30 PM,37.4,35.6,93,30.04,7.0,Calm,Calm,-,N/A,,Clear,0,2012-12-15 06:30:00
10:50 PM,39.2,37.4,93,30.05,6.0,Calm,Calm,-,N/A,,Clear,0,2012-12-15 06:50:00
11:10 PM,37.4,35.6,93,30.05,5.0,Calm,Calm,-,N/A,,Clear,0,2012-12-15 07:10:00
11:30 PM,35.6,35.6,100,30.05,5.0,NNE,3.5,-,N/A,,Clear,30,2012-12-15 07:30:00
11:50 PM,37.4,35.6,93,30.05,7.0,NE,3.5,-,N/A,,Clear,40,2012-12-15 07:50:00